Wind_Speed
18 19 20 21 22 22 22 22 22 22 21 22 23 24 25 25 25 25 25 25 23 22 20 17 18 19 19 19 18 20 24 26 26 25 23 22 22 21 20 20 20 20 20 20 19 18 18 18 17 16 15 14 13 12 10 9 7 6 5 4 4 4 5 5 5 4 4 4 3 2 2 1 2 3 4 3 3 3 2 2 3 3 4 4 5
18 19 20 21 22 23 23 23 22 22 23 24 25 25 26 27 28 26 23 25 24 23 22 19 19 20 21 21 19 16 19 24 27 28 26 25 25 23 22 22 22 22 22 21 21 20 20 19 18 17 16 16 15 13 12 11 10 8 7 6 5 5 5 5 5 5 4 4 3 2 2 1 1 2 3 3 3 3 3 3 3 4 4 5 5
18 19 20 21 22 23 24 24 24 24 25 26 26 26 26 27 29 26 23 25 24 22 23 22 21 20 21 23 21 18 17 20 25 29 30 28 27 26 25 24 24 24 23 23 22 22 21 21 20 19 17 17 16 15 14 14 12 11 10 9 7 6 6 6 6 5 5 4 3 3 3 2 1 1 2 2 2 2 2 3 4 4 5 5 6
19 20 21 22 23 24 26 27 27 28 29 28 28 27 24 24 27 27 25 25 25 24 24 23 23 22 23 24 24 22 19 19 21 25 30 30 29 29 28 26 26 25 26 25 24 23 23 22 21 20 19 18 17 17 16 15 15 13 12 11 10 9 8 7 6 6 5 4 4 4 3 3 3 1 1 1 1 1 2 3 4 5 5 6 6
20 21 22 23 24 26 27 27 28 29 28 28 28 26 23 23 26 26 26 26 26 26 24 24 24 24 24 25 25 25 23 21 21 23 27 31 32 32 30 29 28 27 27 28 27 25 24 24 23 22 21 20 19 18 18 17 16 15 14 13 12 11 10 9 8 7 6 5 5 5 4 4 4 3 2 1 1 0 1 2 3 5 5 6 6
21 22 23 24 25 26 27 27 28 28 26 25 24 24 23 24 25 26 26 25 25 24 25 26 26 26 25 25 26 26 26 25 24 23 24 28 32 34 34 32 30 29 29 29 29 28 26 26 25 24 23 22 21 20 19 19 18 17 16 15 14 13 12 11 10 9 8 7 6 6 5 5 5 4 3 3 2 2 2 2 3 4 5 6 6
22 23 24 26 26 26 27 27 27 27 25 24 23 25 26 27 27 26 26 25 25 25 25 26 27 27 27 27 27 28 28 27 27 26 24 26 28 32 36 35 33 32 30 30 29 29 28 28 27 26 25 24 23 22 21 21 20 19 18 17 16 15 14 13 12 11 10 9 8 7 7 6 6 5 5 4 4 3 2 2 2 3 4 5 5
24 25 26 27 28 28 27 27 27 27 26 24 24 25 26 27 26 25 25 26 27 27 26 25 26 27 28 28 29 30 31 30 30 29 28 28 27 29 34 36 36 35 33 31 30 29 28 29 29 28 27 26 26 25 23 22 22 21 20 19 18 17 16 16 15 14 12 11 10 9 8 7 7 6 5 5 5 4 3 3 2 2 3 3 4
25 26 27 28 28 29 29 28 27 27 27 26 25 26 26 25 25 25 26 28 29 29 29 30 30 30 30 30 29 30 31 32 32 31 32 31 28 28 30 33 35 35 35 33 30 30 29 29 30 29 29 28 28 27 26 25 24 23 22 21 20 19 18 17 17 16 15 13 12 10 9 9 8 8 7 6 6 5 4 4 3 3 2 2 2
25 26 26 27 27 28 28 29 28 28 27 27 27 27 27 26 26 26 28 29 29 29 30 32 32 31 30 30 30 30 30 31 32 33 33 33 32 30 28 30 33 34 36 35 31 31 31 30 30 29 29 30 30 29 28 27 26 25 24 23 22 21 20 19 18 18 17 16 14 13 11 11 10 9 9 8 7 6 6 5 5 4 3 3 2
24 24 24 24 26 27 27 28 28 28 28 27 27 28 28 28 27 27 28 29 29 29 29 29 30 30 30 30 30 30 30 30 32 33 34 34 34 32 29 28 29 32 36 37 34 34 34 33 31 30 29 30 31 31 30 29 28 27 26 25 24 23 22 21 20 20 19 18 16 15 14 13 12 11 11 10 9 8 7 7 6 6 5 4 3
23 23 23 23 24 25 27 27 27 28 28 28 28 28 28 28 28 28 28 29 29 30 30 30 29 28 29 30 30 30 30 29 30 32 33 34 34 34 31 28 28 31 35 35 35 34 34 35 32 31 31 32 32 32 32 31 30 29 28 27 26 25 24 23 22 21 21 20 19 17 16 15 14 14 13 12 11 10 9 8 8 7 6 5 4
22 22 22 22 22 23 24 26 27 27 28 29 30 30 30 30 29 29 29 29 29 30 31 31 30 29 30 30 30 31 31 29 28 29 32 34 34 35 34 30 29 30 32 34 33 31 31 34 34 34 35 34 34 33 32 33 32 31 29 29 28 27 26 25 24 23 22 22 21 20 18 17 16 15 15 14 14 12 11 10 9 8 7 6 5
22 22 22 22 22 22 23 24 26 27 28 30 31 32 32 32 32 31 30 30 30 31 32 32 31 31 32 31 30 31 32 31 29 28 31 33 35 36 36 35 32 32 32 33 33 31 31 34 35 37 38 36 36 35 34 33 33 32 32 31 30 29 28 27 26 25 24 23 22 21 20 19 18 17 16 16 15 14 13 12 11 10 9 7 6
23 22 22 22 23 23 23 24 25 26 28 29 31 32 33 34 34 33 33 32 31 32 33 33 31 32 34 32 31 31 31 32 32 32 33 35 36 36 37 36 34 34 34 32 32 32 32 33 34 36 38 38 37 36 35 35 34 34 34 33 32 30 30 29 28 27 25 24 24 23 22 20 19 18 17 16 16 15 15 14 12 11 10 9 8
25 25 25 24 24 25 25 26 27 28 29 30 31 33 34 35 36 36 36 35 34 34 35 34 33 33 34 33 33 33 31 32 35 36 36 37 37 37 37 37 36 37 36 34 32 31 32 33 33 34 36 38 38 38 38 37 36 35 35 34 33 32 31 31 30 29 27 26 25 25 24 22 21 19 18 17 17 16 15 15 13 12 12 11 10
28 28 28 28 28 28 28 29 29 30 31 32 33 34 35 36 36 37 38 38 37 37 36 36 35 35 34 33 34 34 33 33 35 37 38 38 38 38 39 38 38 39 38 36 34 32 32 33 34 34 34 36 38 40 40 39 37 36 35 35 35 34 34 33 32 31 30 29 27 26 25 24 22 20 19 19 18 17 16 16 14 13 13 12 11
29 30 30 31 31 32 32 33 33 34 35 35 36 37 37 37 36 36 37 39 39 38 38 38 37 36 36 36 35 34 34 34 36 37 37 39 40 39 40 40 41 41 40 38 37 35 34 34 34 34 34 35 37 38 39 40 39 38 37 37 36 36 36 35 34 33 32 31 30 28 27 25 24 22 21 20 19 18 18 17 16 14 14 13 12
29 29 30 31 32 33 34 35 36 37 38 38 39 39 39 38 36 35 36 37 38 37 38 40 38 37 38 38 37 35 35 35 36 37 36 38 42 42 41 42 44 43 42 41 39 36 36 36 35 34 34 35 35 36 37 39 40 40 39 39 38 37 37 37 37 35 35 34 32 30 29 27 26 24 23 22 21 20 19 18 17 16 15 14 14
29 29 30 31 32 33 35 36 37 39 39 40 41 41 40 38 36 34 33 35 36 36 36 38 37 37 38 38 38 37 37 36 35 36 37 36 40 43 43 43 45 45 43 42 40 37 38 39 37 36 35 35 36 35 36 37 39 40 41 41 40 40 39 39 39 38 37 36 35 33 31 30 28 27 25 24 23 21 20 20 19 18 17 16 15
28 29 30 31 32 33 35 36 38 40 41 42 42 42 41 39 37 35 33 33 34 34 35 36 36 37 37 37 37 38 39 39 35 35 38 36 37 41 43 44 46 45 44 43 41 38 37 39 39 38 38 37 37 37 36 36 37 38 40 41 42 42 41 41 41 41 40 38 37 36 34 32 31 29 28 26 25 23 22 21 20 20 19 18 17
29 29 30 31 32 33 34 36 38 40 42 43 43 43 42 40 37 35 33 32 32 33 34 35 36 36 36 36 35 36 38 40 38 38 39 37 35 37 41 44 46 45 44 44 42 39 37 38 39 39 39 39 38 38 37 36 36 36 38 41 43 44 44 43 42 43 42 41 39 38 37 35 33 31 30 29 27 25 24 23 22 21 20 19 19
30 30 31 31 32 34 35 36 38 40 42 43 43 43 42 40 38 36 34 33 33 34 34 34 35 35 36 36 34 36 38 39 40 41 39 37 36 36 37 42 46 45 44 45 45 43 40 40 41 41 40 39 39 39 38 36 36 35 37 39 42 44 45 45 44 43 44 43 42 41 39 38 36 34 32 31 29 27 26 25 24 23 22 21 20
31 32 32 33 33 34 36 37 39 41 43 44 43 43 42 41 38 36 36 35 35 35 34 34 35 35 36 36 35 36 38 37 39 42 41 39 38 38 36 38 44 45 44 47 49 47 44 42 43 43 41 39 39 40 39 38 36 35 37 39 41 44 46 47 46 45 44 45 44 43 41 40 38 36 35 33 31 30 28 27 26 24 23 22 21
32 33 33 34 34 35 36 38 39 41 43 44 43 43 42 42 40 38 37 36 35 35 34 33 34 34 35 36 36 37 38 37 39 41 43 44 43 42 40 38 41 44 45 48 49 49 48 44 43 45 43 40 39 40 40 39 37 37 37 39 40 43 45 47 47 47 45 45 46 45 43 42 41 39 37 35 33 32 30 28 28 26 25 24 23
34 34 35 35 36 36 37 38 40 41 43 43 43 42 42 42 41 40 38 37 36 36 35 33 32 32 33 35 37 38 39 39 40 40 41 44 46 47 45 42 41 42 45 47 48 50 51 47 44 45 45 43 41 40 40 39 39 38 38 38 39 41 44 45 47 47 46 46 46 47 46 44 43 42 39 37 35 34 32 31 30 29 27 26 24
35 36 36 36 37 38 39 39 40 41 42 43 43 42 42 41 42 41 39 38 36 36 36 35 33 32 33 34 36 38 40 39 41 42 41 42 44 46 46 45 44 43 43 46 49 52 51 48 46 46 46 46 44 42 40 39 40 40 39 39 39 39 41 43 45 46 47 46 46 48 48 47 45 44 42 40 37 36 34 33 32 31 29 28 27
36 37 37 38 38 39 40 40 41 42 43 43 44 43 42 41 41 41 41 39 37 36 37 36 36 35 36 36 36 38 40 41 42 44 43 43 43 44 45 47 49 47 42 43 49 52 52 51 49 49 48 47 47 45 44 42 41 41 40 40 40 39 39 41 43 44 46 47 47 48 49 49 47 46 45 42 39 37 36 35 34 33 31 30 29
37 38 39 39 40 40 41 42 42 43 44 44 44 44 43 41 41 41 41 41 39 38 37 37 37 38 38 38 38 39 39 41 43 43 43 44 45 45 45 46 51 52 46 42 46 50 52 52 52 51 47 45 48 48 47 45 43 43 43 42 41 39 38 39 41 43 44 45 46 47 49 50 49 47 46 44 41 39 37 36 35 35 34 32 31
39 40 40 41 41 42 43 44 44 44 45 46 45 45 44 42 41 41 41 41 40 39 39 38 38 39 40 40 40 41 41 41 42 43 44 45 46 46 46 47 50 53 50 45 44 46 51 53 52 52 46 43 48 52 50 47 45 44 44 43 42 39 39 39 39 41 44 44 44 45 47 51 50 48 47 46 43 40 39 38 37 36 35 34 33
40 41 42 42 43 44 44 45 45 46 46 47 46 45 44 42 41 41 41 41 42 42 42 41 40 40 41 42 42 42 43 43 42 41 43 45 47 47 47 48 50 50 51 51 46 43 49 52 53 53 50 47 50 53 52 50 47 44 42 43 42 40 39 39 38 40 43 43 43 43 45 50 51 49 48 47 44 42 40 39 38 37 36 35 34
42 42 43 43 44 45 46 46 46 47 47 48 47 45 44 43 42 42 41 42 43 44 44 44 43 42 42 43 43 42 43 45 44 43 43 44 47 48 49 50 50 48 49 53 50 44 45 51 53 54 55 54 53 53 52 51 49 46 43 42 42 42 40 39 38 39 42 42 41 41 43 48 51 51 49 48 46 44 42 40 39 38 37 37 36
42 43 44 44 45 46 46 46 46 47 48 48 47 46 45 44 44 44 43 43 44 44 45 44 44 44 43 43 43 43 44 44 45 46 46 45 46 48 50 50 51 50 49 52 53 47 43 48 52 53 56 57 57 55 53 51 49 47 45 43 42 42 41 39 38 40 42 42 40 39 41 45 50 51 50 48 47 46 44 42 41 39 39 38 38
43 44 44 45 46 46 46 46 46 46 47 48 47 46 45 46 46 47 46 45 45 45 45 45 44 44 44 43 42 43 44 44 45 47 47 47 47 48 51 50 49 50 50 50 53 52 47 48 51 52 54 57 57 56 55 52 48 47 45 40 39 41 41 39 39 40 41 42 40 39 39 43 48 51 50 49 48 47 46 44 42 41 41 40 40
44 44 45 46 47 46 46 46 46 46 47 47 47 47 47 47 48 49 48 47 46 44 44 43 42 43 43 42 42 42 43 44 44 45 46 47 47 48 51 52 49 49 49 48 50 52 51 49 51 51 51 54 56 57 55 52 50 49 45 37 35 39 41 39 39 39 40 41 41 39 39 41 45 49 50 50 49 48 47 45 44 43 43 43 43
45 45 46 47 47 46 46 45 46 47 47 47 47 47 48 48 48 49 48 47 46 44 42 41 41 41 40 40 42 42 42 42 41 42 43 44 46 48 49 52 51 48 49 50 50 51 52 51 51 49 49 51 54 55 55 53 52 53 49 41 35 38 41 39 37 39 40 41 41 40 39 40 42 47 49 49 49 49 48 46 44 44 44 44 44
45 46 47 47 47 47 46 46 46 47 48 48 47 47 47 48 47 48 48 46 45 43 40 39 39 40 39 39 41 41 41 41 41 41 42 42 44 46 47 49 50 48 47 50 51 51 52 53 52 49 47 47 50 52 54 53 51 53 51 46 39 38 40 40 38 38 40 41 41 40 39 39 39 43 47 48 49 49 48 47 45 44 44 45 45
46 47 47 47 47 47 47 47 47 48 49 48 47 47 47 48 47 47 46 44 42 40 38 37 38 38 39 39 40 41 40 40 41 40 41 41 42 44 45 47 50 49 48 50 52 51 52 54 54 51 46 44 44 47 51 53 52 51 49 47 43 40 40 40 38 38 39 40 41 40 39 39 39 41 45 47 49 49 49 48 47 46 45 45 45
46 47 47 46 47 47 47 48 48 49 49 48 47 48 48 48 47 45 43 41 39 38 36 36 37 37 38 40 40 40 40 40 40 38 38 40 41 42 44 46 49 51 50 47 46 49 52 53 54 53 48 44 43 44 47 51 53 52 49 46 45 42 40 40 40 40 40 40 39 39 40 40 40 41 43 45 47 48 48 48 47 46 46 45 45
47 47 47 47 47 47 48 48 48 49 49 47 47 49 48 47 45 42 40 38 36 36 35 35 36 36 38 40 40 39 38 38 38 37 37 38 39 41 42 44 48 52 53 47 41 44 52 54 53 55 51 45 44 44 45 50 52 52 50 46 44 43 41 41 42 42 41 40 39 39 40 41 41 42 43 44 45 45 46 47 46 46 45 44 44
47 47 48 48 47 47 48 48 48 48 48 48 49 49 47 45 42 39 36 35 34 34 34 34 35 36 38 39 39 39 37 36 36 36 35 36 37 39 41 43 46 51 55 53 45 42 50 55 54 55 53 44 41 42 44 49 52 51 50 48 47 45 42 42 43 42 41 40 39 39 39 39 40 42 43 44 44 45 46 46 46 44 43 43 43
48 48 48 48 48 48 49 48 48 47 46 46 47 45 44 42 39 36 34 34 33 33 33 33 34 35 36 38 39 38 36 35 35 35 34 34 34 36 39 42 46 50 53 55 50 44 47 54 55 57 55 46 41 41 43 47 51 51 51 50 49 47 43 42 42 42 41 40 40 39 38 39 40 42 42 42 43 45 46 45 44 43 43 43 42
48 49 49 48 48 49 48 47 47 46 44 43 42 42 41 39 36 33 33 33 32 32 32 33 34 34 35 37 39 38 36 34 33 33 32 32 32 33 37 40 45 49 51 53 52 48 48 52 54 57 58 52 44 42 43 47 50 51 51 51 50 48 45 42 41 41 42 43 43 41 39 40 41 41 41 41 41 43 43 42 42 43 43 42 41
48 48 48 48 48 47 46 46 45 44 43 42 40 39 38 36 33 32 32 32 31 31 32 32 33 34 35 36 38 37 36 34 31 30 30 30 31 32 34 38 42 46 48 50 51 50 50 51 52 53 57 56 50 42 41 45 48 49 49 50 50 49 46 41 40 41 44 46 47 43 40 41 42 41 40 40 39 38 37 37 39 41 42 42 41
48 48 48 48 48 46 45 45 43 41 39 39 39 37 35 33 32 31 31 31 31 30 31 33 34 35 36 37 37 36 34 34 31 30 31 32 32 32 33 36 40 42 43 46 49 50 50 52 53 51 52 56 54 44 38 42 46 47 48 50 50 49 45 41 39 42 45 48 48 44 42 44 44 41 39 38 38 37 36 35 37 39 40 40 40
48 48 48 48 48 46 45 44 42 41 39 39 38 35 31 31 31 31 31 31 30 30 30 32 33 35 37 38 38 36 34 33 31 29 32 35 34 32 33 36 38 39 39 41 44 48 49 52 55 53 49 51 54 47 40 41 45 47 48 48 48 48 46 42 41 44 47 48 47 44 43 44 44 40 37 37 39 40 38 36 37 39 38 38 38
47 47 47 48 47 45 44 43 42 43 42 40 38 34 30 28 29 30 30 30 29 29 30 32 33 35 37 38 38 38 35 33 32 29 30 36 36 34 34 36 36 36 37 38 40 43 47 50 54 53 49 49 51 48 43 43 45 46 47 47 48 49 49 45 43 45 45 45 44 43 42 42 42 39 36 37 39 39 38 36 37 38 37 37 38
47 47 47 47 45 44 43 42 42 41 40 39 36 33 29 26 27 28 28 28 28 27 28 31 34 35 36 37 38 38 37 33 32 31 29 33 37 35 35 35 35 35 36 38 39 40 43 48 52 51 50 49 48 46 43 44 46 46 46 47 48 50 50 47 44 44 44 42 42 43 43 43 43 40 37 38 38 38 37 37 37 38 38 38 39
47 47 47 46 44 43 42 42 41 39 37 36 34 32 29 25 25 26 27 28 27 26 27 30 34 35 35 37 38 38 37 34 31 31 29 29 34 35 34 35 35 34 35 37 38 37 39 44 48 49 48 48 48 45 42 43 45 46 46 46 47 49 50 47 45 44 44 42 41 42 44 45 45 42 39 39 37 36 36 36 36 37 39 39 39
47 47 47 45 44 43 42 41 40 37 35 34 33 31 28 25 24 26 27 27 27 26 26 29 32 33 33 35 37 39 38 35 31 30 28 26 31 34 33 33 34 35 35 35 35 35 36 39 43 45 46 47 48 48 44 42 42 46 47 46 47 49 49 47 45 44 44 43 41 41 44 47 46 44 42 41 39 36 35 35 36 37 39 39 39
47 46 45 44 43 42 41 40 39 36 34 33 32 30 28 26 25 26 27 27 27 25 25 27 30 31 31 33 35 38 38 36 32 30 26 24 27 32 32 32 33 34 35 34 34 34 34 35 37 41 43 45 47 48 47 44 42 44 46 47 47 48 48 47 46 44 43 42 41 41 43 45 45 45 43 42 40 37 36 36 36 37 39 39 38
Wind_Direction
305 305 303 301 299 298 297 297 299 299 300 299 296 291 285 282 281 280 271 266 267 261 257 257 258 264 268 272 268 258 252 248 246 245 243 242 242 243 243 238 232 231 232 232 232 232 233 232 230 228 231 235 234 235 237 233 227 222 222 229 240 245 250 258 263 265 268 274 283 290 305 345 9 8 4 4 10 12 20 45 58 68 83 94 100
311 312 311 309 304 300 297 295 295 294 293 294 296 295 289 283 279 280 272 267 270 265 259 256 255 259 262 267 269 266 259 252 249 248 247 244 243 243 242 239 235 233 232 233 233 231 232 233 232 228 228 233 235 236 239 241 237 230 226 225 230 240 247 254 260 263 266 269 270 269 268 282 12 13 5 7 11 12 22 48 58 67 79 88 95
309 310 310 308 303 300 298 295 292 290 290 290 293 293 291 285 277 278 277 274 274 269 264 260 255 258 260 264 267 267 268 262 253 250 249 247 244 242 240 239 237 235 234 234 234 233 232 232 233 232 229 229 234 237 240 242 243 239 233 228 226 232 240 249 256 260 262 264 261 251 249 258 291 358 357 2 12 17 33 58 64 68 76 84 92
303 303 302 302 302 303 304 302 297 293 291 290 292 293 291 284 278 278 277 277 278 271 269 265 258 260 261 263 267 266 266 268 264 255 250 248 247 244 241 239 238 235 234 234 234 233 233 233 233 233 233 230 231 235 240 242 243 243 239 234 229 229 233 241 249 255 257 255 252 241 236 248 261 284 323 337 1 29 49 68 72 75 80 86 92
301 301 302 304 305 306 307 308 307 302 295 292 290 291 291 285 283 280 273 276 280 276 279 278 267 263 263 262 265 266 264 263 265 263 256 249 247 247 244 240 238 235 233 233 234 233 234 234 234 234 234 233 232 232 236 240 242 243 242 238 234 231 231 235 241 247 251 250 247 239 231 236 249 256 253 242 228 123 87 88 83 84 87 90 93
306 307 308 310 309 309 310 311 314 313 305 298 291 288 289 288 287 281 273 274 277 278 286 288 276 266 264 263 263 264 264 262 261 262 261 255 250 247 246 244 241 239 236 232 231 232 234 235 235 235 235 234 234 233 233 236 239 242 243 240 236 234 233 235 237 242 245 247 246 241 236 233 238 249 247 228 213 193 150 125 107 98 98 97 97
314 314 314 313 312 313 313 313 316 318 314 306 298 293 291 291 288 282 275 273 274 277 282 283 276 268 265 265 266 264 264 263 260 259 260 260 257 252 250 248 244 243 242 237 233 231 232 234 235 236 236 235 235 235 234 234 236 239 241 242 239 237 235 235 237 240 242 243 244 243 241 237 234 240 243 233 218 203 178 155 140 123 111 108 105
319 318 317 316 316 316 316 315 315 316 316 311 306 302 299 296 291 284 277 274 276 278 278 276 274 272 270 268 267 266 264 262 260 259 257 258 260 258 253 250 246 243 244 243 238 234 232 234 235 236 237 237 236 236 236 236 236 236 238 240 241 239 237 237 237 239 240 241 242 241 240 239 235 233 233 232 224 210 191 176 166 153 132 121 112
320 320 319 318 318 318 317 317 317 315 315 313 309 305 305 303 298 292 285 281 280 280 279 278 275 274 273 271 269 268 265 261 258 257 257 257 257 258 257 255 251 245 244 245 242 238 235 235 235 236 237 239 238 237 237 238 237 237 237 238 240 240 239 238 238 239 239 240 240 239 238 237 235 230 225 224 226 219 202 188 183 180 169 154 133
322 321 320 320 320 320 320 319 319 317 316 314 310 307 305 304 300 297 294 290 286 283 282 281 279 276 274 272 270 270 269 264 258 253 254 256 256 257 258 257 252 246 244 246 245 242 239 239 239 238 238 240 240 239 238 238 239 238 237 237 238 239 240 239 239 239 239 239 238 238 236 233 231 228 224 219 220 221 213 201 192 191 195 197 194
323 322 322 323 322 322 321 321 321 320 318 315 312 309 306 304 301 298 295 294 290 287 284 283 282 279 277 275 273 272 270 265 259 253 251 252 252 254 255 255 250 244 243 245 249 247 243 243 243 242 241 241 242 241 240 239 239 240 240 239 239 239 240 240 240 240 240 239 238 237 235 231 229 228 227 224 220 219 218 213 204 199 203 211 219
324 322 322 322 323 322 321 321 322 322 320 316 313 310 307 304 301 298 295 293 291 289 287 284 283 281 278 277 275 273 270 265 260 256 252 249 249 251 252 253 250 246 243 243 247 247 243 242 243 244 245 243 242 242 241 241 240 240 241 241 240 240 241 241 241 241 241 240 239 237 236 233 229 227 227 228 226 223 220 219 217 211 210 217 230
324 322 320 319 319 319 319 320 321 322 320 317 314 311 308 305 301 298 295 292 291 290 288 287 287 284 281 278 276 272 269 265 262 259 256 252 249 249 250 251 250 248 246 243 244 245 242 242 243 245 245 244 243 242 241 241 240 240 241 242 242 241 241 241 241 242 242 242 241 239 237 235 232 229 227 228 229 229 226 224 223 223 222 225 234
323 322 319 317 316 315 315 316 318 319 318 316 314 311 308 305 302 299 296 293 290 287 286 286 286 285 283 281 277 272 267 264 262 260 259 256 251 249 250 250 248 248 247 246 247 248 247 245 243 244 245 244 244 244 243 242 241 240 239 241 242 242 241 240 240 241 242 243 244 243 240 238 236 233 231 230 230 231 232 231 229 229 231 231 235
322 321 319 316 314 313 312 312 314 315 315 314 312 310 307 305 302 299 296 293 289 286 284 284 283 282 281 281 279 273 267 263 259 258 259 258 254 252 251 250 248 249 248 248 249 250 251 249 245 243 245 246 245 245 245 244 242 240 239 239 240 242 242 240 240 239 240 242 243 244 243 241 239 237 235 233 233 233 234 233 233 232 233 234 235
322 322 321 318 315 313 312 311 312 312 313 313 311 309 307 304 302 299 296 293 290 287 286 285 283 281 280 280 279 275 270 265 260 258 259 259 256 254 252 250 249 250 250 250 250 250 251 252 249 244 243 245 246 246 246 245 243 242 241 239 239 241 242 241 240 239 237 238 240 242 243 243 242 241 238 236 236 236 236 235 233 232 233 233 233
323 323 322 321 319 317 315 314 313 313 314 313 312 310 308 306 303 299 296 292 290 287 285 285 283 283 283 280 278 276 273 269 265 262 260 257 255 254 253 251 250 249 250 251 250 250 250 250 249 246 242 242 244 245 246 245 244 244 242 240 239 240 240 241 241 239 237 236 236 238 240 243 243 242 241 239 238 237 238 237 234 232 232 233 233
323 322 322 321 320 319 318 318 317 317 317 316 315 313 312 309 305 301 296 292 289 286 284 283 282 282 282 280 278 276 273 270 268 265 261 257 254 254 253 251 249 248 249 250 249 250 250 248 246 246 244 242 242 243 245 246 246 245 242 241 241 240 238 239 240 239 238 236 235 235 236 239 241 242 241 241 240 239 238 239 238 235 233 234 234
322 322 321 321 320 320 319 319 319 318 319 318 317 316 314 311 307 302 297 293 290 287 285 283 282 280 279 278 277 275 272 269 266 265 262 257 254 254 253 252 251 249 249 249 248 248 249 248 245 244 244 243 242 242 243 245 246 246 244 243 242 241 238 238 238 238 238 237 235 233 233 235 238 240 240 240 240 240 239 240 239 238 237 237 237
323 322 322 322 321 320 320 319 318 318 318 318 318 317 316 312 309 304 298 294 292 290 288 285 284 282 278 276 275 274 272 268 265 265 263 259 256 254 252 250 250 250 249 248 248 246 246 248 247 245 245 245 244 244 244 244 245 246 246 245 244 243 241 239 238 237 237 236 235 233 232 232 234 237 238 238 239 240 240 240 241 240 240 240 241
323 322 322 322 322 320 319 318 317 317 317 317 317 318 316 314 310 306 301 296 292 291 290 289 288 286 281 276 273 271 271 268 267 266 264 260 256 254 250 246 246 248 247 247 246 244 245 248 248 246 246 246 246 245 245 246 245 246 246 246 245 244 242 241 238 236 236 236 235 233 232 230 230 233 236 237 237 238 240 240 241 242 242 242 243
322 322 322 322 321 320 319 318 317 317 317 317 318 318 317 315 311 307 302 298 295 293 293 292 291 287 283 278 274 272 271 269 267 266 264 260 254 253 252 247 244 245 246 245 242 240 243 246 247 246 246 245 246 245 246 247 246 246 247 246 245 244 243 242 240 237 236 236 235 234 233 231 230 230 233 236 236 236 238 240 241 243 244 244 244
321 321 321 322 321 320 320 319 318 317 317 317 318 318 317 315 311 307 302 299 297 295 293 292 290 287 284 281 277 274 271 269 266 264 262 259 253 250 251 248 245 244 245 244 241 239 241 243 242 244 245 244 245 246 246 246 246 245 246 246 244 243 242 242 241 239 237 235 235 234 233 232 231 230 231 234 235 236 237 239 240 242 244 245 246
320 320 320 321 321 321 320 320 319 318 317 317 317 317 317 315 311 306 302 300 298 296 294 291 288 287 285 282 278 273 270 269 266 263 260 257 251 247 250 251 247 244 243 243 243 242 241 241 241 242 243 243 244 245 245 246 247 246 246 245 244 242 241 240 240 240 238 236 234 234 234 233 232 231 231 232 234 235 236 238 239 240 242 244 246
317 318 318 319 320 321 320 320 319 317 316 316 316 316 315 314 311 306 302 300 298 297 296 292 288 285 283 281 278 274 270 269 267 264 261 256 251 249 254 257 251 244 242 243 244 242 239 238 240 241 241 241 243 245 245 246 247 247 246 246 243 241 241 240 239 239 239 237 234 233 233 233 233 232 232 231 232 234 235 237 239 240 241 243 245
315 316 317 318 319 320 320 320 319 317 316 315 314 314 314 313 310 307 303 300 297 297 296 294 291 288 284 281 279 276 272 269 266 265 264 259 253 251 254 256 253 245 243 244 243 239 235 234 236 239 240 241 241 242 243 246 247 246 247 248 245 242 241 240 240 238 238 237 236 233 232 233 233 233 233 232 232 233 234 236 238 239 241 242 244
313 314 315 316 317 318 319 319 318 317 315 313 312 312 311 310 308 306 303 300 296 295 295 296 295 293 291 286 281 277 274 270 265 264 267 264 257 254 253 252 250 245 244 245 240 236 233 233 235 237 239 240 241 241 241 244 248 247 247 249 249 245 242 241 241 240 238 238 237 234 232 232 232 232 233 232 232 233 234 235 237 239 240 242 243
310 311 313 315 316 317 317 317 317 317 315 313 310 309 307 306 306 304 302 299 296 293 292 295 296 295 294 291 286 280 276 272 268 265 267 266 261 257 254 251 247 246 249 246 238 235 234 233 235 237 238 240 242 242 241 242 246 248 248 249 250 248 245 242 242 241 239 238 238 236 233 232 232 232 233 233 233 233 234 235 237 238 240 241 243
308 310 312 313 315 316 316 316 317 316 315 312 309 307 306 305 303 301 300 299 297 293 290 291 293 293 293 291 288 284 279 274 270 267 264 263 261 259 256 254 251 251 254 250 240 235 235 234 234 235 237 242 244 243 242 242 244 248 250 249 249 250 249 246 243 242 240 238 238 238 235 233 232 232 232 233 234 234 235 236 237 238 239 240 243
308 309 311 313 314 315 315 316 316 315 314 311 308 306 305 303 302 299 298 297 296 294 292 290 290 290 290 289 287 284 281 277 273 269 265 262 261 260 257 256 255 254 253 250 242 237 237 236 236 235 235 241 243 241 240 241 242 247 250 249 248 248 251 250 245 243 241 238 238 238 237 234 232 232 233 233 235 235 236 237 238 239 240 241 243
307 309 310 312 314 315 315 315 315 314 313 311 308 305 303 302 301 299 297 296 295 294 293 291 291 289 287 286 285 282 279 276 275 272 267 262 260 260 258 255 255 255 251 247 242 237 237 237 237 238 236 238 241 238 237 239 242 245 247 249 249 247 248 252 250 245 242 239 238 238 237 235 233 232 233 234 235 237 238 239 239 240 241 242 244
307 308 310 312 314 315 315 314 314 313 312 310 308 305 303 301 300 299 298 296 294 293 292 292 291 289 287 284 282 280 277 274 273 272 270 265 259 257 257 255 253 254 251 247 242 236 237 237 235 236 237 237 239 237 235 237 241 243 244 246 249 249 246 249 252 248 244 241 238 238 237 235 233 232 233 234 236 238 239 240 241 242 243 244 245
307 308 310 312 314 314 314 314 313 312 311 309 307 305 303 301 300 300 299 297 295 293 292 291 291 289 287 284 282 279 277 274 271 270 268 266 261 255 254 254 253 253 252 249 245 238 236 239 235 233 236 237 238 238 236 236 238 242 245 244 246 251 247 245 249 249 245 242 239 238 237 234 233 233 233 234 236 238 240 241 242 244 245 246 247
308 309 310 312 313 314 314 313 312 311 310 308 307 305 303 302 301 301 300 299 296 294 293 292 291 289 286 284 281 279 278 275 272 270 267 265 261 256 252 251 251 251 250 249 248 242 239 242 239 234 234 235 236 237 237 236 234 238 243 241 241 250 249 243 245 247 244 242 240 238 237 234 232 233 233 234 236 238 240 242 244 245 246 248 249
310 311 312 313 314 314 314 313 312 311 309 308 307 305 304 303 303 302 301 300 298 296 295 293 291 288 286 283 282 280 278 276 273 272 269 264 260 255 251 249 248 247 247 248 249 246 241 241 240 235 234 235 236 237 237 235 232 232 237 241 242 247 247 242 243 244 240 240 241 238 237 235 232 232 233 234 236 238 240 243 244 245 247 249 250
312 313 313 314 314 314 314 313 312 311 309 308 307 306 305 305 304 303 301 300 300 298 296 293 290 288 286 283 282 281 279 276 273 271 270 265 259 255 251 248 246 245 245 247 248 246 242 237 236 237 238 236 235 235 234 232 230 230 235 244 248 246 244 241 241 242 238 238 239 238 237 237 234 232 233 234 235 237 240 242 244 246 248 249 251
313 313 314 315 315 315 315 314 313 311 309 308 307 306 305 304 303 302 301 301 301 299 296 293 291 289 288 286 284 283 281 278 273 270 270 267 259 254 250 246 245 243 243 246 246 246 244 238 235 240 242 237 234 234 233 231 230 231 234 242 248 248 245 241 239 241 240 238 238 237 236 236 236 234 233 234 235 237 239 241 244 246 248 249 251
313 314 315 316 316 316 316 315 314 312 310 308 307 306 304 303 302 301 301 301 300 298 296 294 293 293 292 290 288 287 285 281 275 269 269 267 258 253 249 245 242 239 239 244 245 243 244 240 236 238 240 237 235 235 235 233 231 232 234 239 244 245 244 241 239 242 243 238 237 237 235 235 236 235 234 234 235 237 239 241 244 246 248 249 251
314 315 316 317 317 316 316 315 314 313 311 308 307 306 304 303 303 302 302 302 300 298 296 296 297 297 296 294 293 292 289 284 278 271 269 266 258 251 248 244 240 236 235 241 244 242 243 242 237 236 237 237 237 236 236 235 233 232 234 238 242 243 242 240 239 241 242 238 235 235 235 235 235 236 236 236 236 238 240 242 244 245 247 249 251
315 316 317 317 317 316 315 315 315 314 311 309 308 308 306 305 305 305 303 301 298 297 297 298 300 300 299 297 297 296 292 286 280 274 270 266 258 250 246 243 239 236 234 237 242 242 240 239 236 234 234 237 237 235 235 235 233 233 234 238 242 242 240 239 237 238 240 238 236 235 235 235 236 237 238 238 239 240 241 243 244 245 246 248 250
316 317 317 317 316 316 315 315 315 314 312 309 309 309 308 307 307 305 302 300 298 297 298 300 302 302 302 301 300 298 294 288 283 279 273 267 259 250 245 243 239 236 235 236 240 243 238 235 234 233 232 235 235 233 235 235 233 233 234 237 240 240 239 238 235 236 238 239 239 238 237 238 238 238 239 239 240 241 241 242 243 244 246 247 249
317 317 317 316 316 316 315 315 315 314 312 310 309 309 308 308 307 304 301 299 298 298 299 301 303 304 305 305 303 300 297 290 285 282 275 266 260 251 245 242 239 237 236 236 239 242 237 232 232 232 231 233 234 234 236 236 233 232 233 236 239 238 237 236 234 233 236 238 239 240 241 241 240 240 240 240 241 241 240 240 242 243 244 245 247
316 317 316 316 316 316 316 316 315 313 312 310 308 308 309 308 306 302 299 298 298 299 301 302 304 307 308 309 306 301 298 293 285 279 273 265 260 254 246 241 239 238 238 236 237 239 237 232 231 232 232 233 235 237 236 234 231 231 233 235 237 237 236 236 234 232 234 237 238 239 241 243 243 241 240 239 239 240 239 239 240 241 242 243 245
316 316 315 316 316 317 316 316 315 313 312 310 308 309 310 307 304 300 297 296 298 300 302 303 306 309 310 312 311 304 298 294 284 273 267 263 260 256 249 243 239 238 238 238 236 237 237 232 229 231 233 233 236 239 237 233 230 231 233 234 235 236 237 236 233 231 232 236 239 240 241 243 244 243 240 238 236 236 237 238 238 239 240 242 245
315 315 315 315 316 316 315 314 312 310 310 309 308 310 311 308 304 301 297 297 300 302 305 306 308 310 311 313 315 309 300 296 288 271 259 258 258 255 250 244 240 237 238 239 237 237 238 234 229 230 233 233 234 238 239 235 231 230 233 233 233 235 237 236 233 231 231 234 238 239 239 241 243 242 241 240 236 233 236 239 240 240 240 242 244
314 314 314 315 316 316 314 312 309 306 305 304 304 307 309 308 305 302 299 299 302 305 307 308 309 310 313 314 316 314 305 298 294 277 257 253 254 251 247 244 241 239 240 240 238 237 237 235 232 232 233 233 233 236 240 238 232 230 231 232 233 234 236 237 235 232 231 233 235 236 235 237 241 241 240 239 235 232 236 240 240 240 240 242 243
313 314 315 315 316 315 312 310 306 302 300 301 301 302 304 306 305 302 301 302 304 307 309 310 309 310 313 314 316 317 311 302 298 289 266 252 250 249 246 243 243 242 242 243 242 240 237 235 233 233 233 233 233 235 241 239 233 229 229 230 232 233 234 236 236 234 233 234 235 236 235 236 240 241 239 237 234 233 235 237 237 239 240 241 243
313 314 315 315 315 314 311 308 304 301 299 300 299 298 301 304 304 304 305 306 306 308 310 312 311 311 313 315 316 318 317 308 302 300 283 257 249 248 245 242 241 243 243 244 245 244 239 235 233 233 233 233 232 235 240 239 232 227 227 227 230 233 233 234 237 237 236 236 236 236 236 237 240 241 239 239 238 237 235 234 236 239 241 241 243
313 314 314 315 315 314 311 308 305 302 300 299 298 298 300 304 306 307 309 309 309 311 313 313 312 313 316 318 319 320 320 315 307 305 296 270 252 249 247 242 239 240 241 242 242 243 239 235 233 233 233 234 233 234 240 240 232 227 225 225 229 233 232 233 238 240 237 235 234 234 236 237 239 241 241 240 240 238 236 235 237 241 241 242 242
313 314 315 315 315 314 311 307 304 302 299 297 297 299 300 301 304 308 310 311 312 315 315 313 312 315 319 321 321 322 323 321 315 309 303 281 259 251 248 244 240 239 239 238 238 237 237 235 234 234 235 236 236 236 240 243 236 229 226 225 227 231 231 231 236 240 238 235 234 234 236 237 238 241 241 239 238 237 237 237 238 239 241 241 242
312 314 315 315 315 313 310 306 303 301 298 296 297 300 301 301 303 308 312 312 313 314 315 313 313 316 320 322 324 325 327 327 321 314 307 289 266 255 249 245 242 241 239 236 234 233 233 233 234 235 235 237 238 239 242 245 240 232 229 227 228 231 231 229 232 237 239 238 236 235 236 236 238 241 241 238 237 238 237 237 236 237 239 241 241
Height
5921 5920 5920 5919 5919 5918 5918 5918 5918 5917 5917 5916 5916 5915 5914 5913 5911 5910 5909 5909 5909 5907 5905 5905 5906 5908 5909 5910 5910 5911 5911 5912 5913 5912 5912 5913 5914 5914 5915 5915 5916 5917 5917 5918 5918 5920 5921 5922 5922 5922 5923 5923 5923 5923 5924 5924 5925 5925 5925 5926 5926 5926 5926 5927 5927 5927 5928 5928 5928 5928 5929 5929 5929 5929 5929 5929 5928 5928 5927 5927 5926 5925 5925 5924 5924
5920 5919 5919 5918 5917 5916 5916 5916 5915 5915 5914 5914 5913 5913 5912 5911 5910 5908 5907 5907 5907 5905 5904 5903 5904 5905 5907 5908 5909 5909 5909 5910 5911 5911 5911 5912 5912 5913 5913 5914 5915 5916 5916 5917 5917 5918 5919 5920 5921 5921 5921 5922 5922 5922 5923 5924 5924 5924 5925 5925 5925 5926 5926 5927 5927 5927 5928 5928 5928 5928 5929 5929 5929 5929 5929 5929 5929 5928 5928 5927 5927 5926 5925 5925 5925
5919 5918 5917 5916 5915 5914 5914 5914 5913 5912 5911 5910 5910 5909 5909 5908 5908 5907 5906 5907 5906 5904 5903 5902 5902 5903 5905 5907 5907 5907 5907 5908 5909 5910 5910 5910 5910 5911 5912 5912 5913 5914 5915 5915 5916 5917 5917 5918 5919 5920 5920 5920 5921 5921 5922 5923 5923 5924 5924 5925 5925 5925 5926 5926 5927 5927 5927 5928 5928 5928 5928 5929 5929 5929 5929 5929 5929 5928 5928 5928 5927 5927 5926 5926 5926
5918 5917 5916 5915 5914 5913 5913 5912 5911 5909 5909 5908 5907 5906 5906 5905 5905 5905 5904 5905 5905 5903 5902 5901 5901 5901 5903 5905 5905 5905 5905 5906 5906 5907 5908 5908 5908 5908 5909 5909 5910 5911 5912 5913 5914 5915 5916 5917 5917 5918 5918 5919 5919 5920 5921 5921 5922 5923 5924 5924 5924 5925 5925 5926 5926 5927 5927 5927 5928 5928 5928 5928 5929 5929 5929 5929 5929 5929 5928 5928 5928 5927 5927 5927 5926
5917 5916 5915 5914 5913 5912 5911 5910 5908 5906 5905 5905 5904 5904 5903 5902 5902 5902 5903 5903 5903 5901 5900 5900 5899 5900 5901 5902 5902 5902 5902 5903 5903 5904 5905 5906 5906 5905 5905 5905 5906 5907 5908 5909 5911 5912 5913 5914 5915 5916 5916 5917 5917 5918 5919 5920 5921 5922 5922 5923 5923 5924 5924 5925 5925 5926 5926 5927 5927 5928 5928 5928 5928 5929 5929 5929 5929 5929 5929 5928 5928 5928 5927 5927 5927
5915 5914 5913 5912 5911 5910 5908 5907 5905 5903 5902 5902 5901 5901 5900 5900 5899 5899 5900 5900 5900 5899 5898 5898 5897 5898 5899 5899 5900 5899 5899 5900 5900 5901 5902 5903 5903 5903 5902 5902 5903 5904 5905 5906 5907 5909 5910 5912 5913 5914 5914 5915 5916 5916 5917 5918 5919 5920 5921 5922 5922 5923 5923 5924 5925 5925 5926 5926 5927 5927 5927 5927 5928 5928 5928 5928 5928 5929 5929 5929 5928 5928 5928 5927 5927
5914 5913 5912 5910 5909 5908 5906 5904 5903 5901 5900 5900 5900 5899 5898 5897 5896 5896 5895 5895 5896 5896 5896 5896 5895 5895 5896 5896 5897 5897 5897 5897 5897 5898 5899 5900 5901 5901 5900 5901 5903 5904 5903 5903 5904 5905 5907 5909 5910 5911 5912 5913 5914 5914 5915 5916 5917 5918 5919 5920 5921 5922 5922 5923 5924 5924 5925 5926 5926 5927 5927 5927 5927 5928 5928 5928 5928 5928 5929 5929 5929 5928 5928 5928 5928
5912 5911 5910 5908 5907 5905 5904 5902 5901 5900 5899 5898 5898 5897 5896 5895 5893 5893 5893 5892 5893 5893 5893 5893 5894 5894 5893 5894 5894 5894 5894 5894 5895 5895 5896 5896 5898 5897 5897 5899 5902 5903 5903 5902 5901 5902 5903 5905 5907 5908 5910 5911 5912 5912 5913 5914 5915 5916 5917 5919 5920 5921 5921 5922 5922 5923 5924 5925 5925 5926 5926 5926 5927 5927 5927 5928 5928 5928 5929 5929 5929 5929 5928 5928 5928
5911 5909 5908 5906 5904 5903 5901 5899 5899 5898 5897 5896 5895 5894 5893 5893 5891 5890 5890 5890 5890 5890 5890 5890 5891 5891 5891 5891 5891 5891 5891 5892 5892 5892 5892 5893 5893 5894 5894 5896 5897 5900 5902 5901 5900 5900 5900 5902 5903 5905 5907 5908 5910 5910 5911 5912 5913 5914 5915 5917 5918 5919 5920 5920 5921 5922 5923 5924 5924 5925 5925 5926 5926 5926 5927 5927 5928 5928 5928 5928 5928 5929 5929 5928 5928
5909 5907 5905 5904 5902 5900 5899 5897 5896 5895 5894 5893 5892 5891 5891 5890 5890 5888 5888 5888 5887 5888 5887 5887 5887 5888 5887 5887 5887 5887 5888 5888 5888 5889 5889 5889 5889 5890 5892 5892 5893 5895 5897 5897 5897 5897 5898 5899 5900 5902 5904 5906 5907 5908 5909 5910 5911 5912 5913 5915 5916 5917 5918 5919 5920 5920 5921 5922 5923 5924 5924 5925 5925 5925 5926 5926 5927 5927 5928 5928 5928 5928 5928 5928 5928
5907 5905 5904 5902 5900 5898 5897 5895 5894 5893 5892 5891 5890 5889 5888 5888 5887 5886 5885 5885 5885 5884 5884 5884 5884 5884 5883 5883 5883 5883 5883 5884 5885 5885 5886 5886 5885 5887 5888 5889 5890 5890 5891 5892 5893 5894 5895 5896 5897 5899 5901 5903 5904 5906 5907 5908 5909 5910 5911 5913 5914 5915 5917 5918 5918 5919 5920 5921 5922 5922 5923 5923 5924 5924 5925 5925 5926 5926 5927 5927 5927 5927 5928 5928 5928
5905 5904 5902 5901 5899 5897 5895 5893 5892 5891 5889 5888 5887 5886 5886 5885 5885 5884 5883 5882 5881 5880 5880 5880 5880 5880 5879 5878 5879 5879 5879 5880 5881 5881 5882 5882 5882 5883 5884 5886 5886 5886 5887 5889 5890 5890 5891 5892 5894 5897 5898 5900 5901 5903 5904 5905 5906 5908 5909 5911 5912 5913 5915 5916 5917 5918 5918 5919 5920 5921 5922 5922 5923 5923 5923 5924 5925 5925 5926 5926 5927 5927 5927 5927 5927
5904 5902 5901 5899 5898 5896 5894 5892 5891 5889 5887 5886 5885 5884 5883 5882 5881 5881 5881 5880 5878 5877 5875 5875 5876 5876 5875 5874 5875 5875 5875 5876 5877 5878 5878 5878 5878 5879 5881 5882 5883 5883 5883 5885 5886 5887 5888 5889 5891 5893 5895 5897 5898 5899 5901 5902 5904 5905 5907 5908 5910 5911 5912 5913 5915 5916 5917 5918 5919 5919 5920 5921 5921 5922 5922 5923 5923 5924 5924 5925 5926 5926 5926 5926 5927
5902 5901 5899 5898 5896 5895 5893 5891 5890 5888 5886 5884 5882 5881 5880 5879 5878 5878 5877 5876 5876 5874 5872 5872 5872 5872 5871 5871 5872 5872 5872 5873 5873 5874 5873 5873 5874 5875 5876 5878 5879 5880 5880 5882 5884 5884 5884 5885 5887 5889 5891 5893 5895 5896 5898 5899 5901 5902 5904 5905 5907 5908 5910 5911 5912 5914 5915 5916 5917 5918 5919 5920 5920 5921 5921 5921 5922 5922 5923 5924 5924 5925 5925 5926 5926
5900 5899 5897 5896 5894 5893 5891 5890 5888 5887 5885 5883 5881 5878 5876 5875 5874 5874 5873 5873 5873 5871 5870 5870 5870 5868 5867 5868 5868 5867 5868 5869 5869 5869 5869 5869 5870 5871 5873 5874 5876 5877 5877 5878 5880 5881 5881 5881 5884 5886 5887 5889 5891 5893 5894 5896 5898 5899 5900 5902 5904 5906 5907 5908 5910 5911 5913 5914 5915 5916 5917 5918 5919 5920 5920 5920 5921 5921 5921 5922 5923 5924 5924 5924 5925
5897 5896 5895 5893 5892 5891 5889 5888 5886 5884 5883 5881 5879 5876 5874 5872 5871 5870 5869 5869 5869 5868 5866 5865 5865 5864 5864 5864 5864 5863 5865 5865 5864 5865 5865 5866 5867 5867 5868 5870 5871 5872 5873 5874 5875 5877 5877 5877 5879 5883 5885 5886 5888 5889 5891 5893 5894 5895 5897 5899 5900 5903 5904 5906 5907 5908 5910 5911 5913 5914 5915 5916 5918 5918 5919 5919 5919 5920 5920 5921 5921 5922 5923 5923 5923
5894 5892 5891 5890 5889 5887 5886 5885 5883 5882 5880 5878 5876 5874 5871 5869 5868 5866 5865 5864 5864 5863 5861 5860 5860 5859 5859 5859 5858 5858 5860 5860 5859 5861 5861 5862 5863 5863 5864 5865 5867 5867 5868 5870 5871 5872 5873 5874 5876 5878 5881 5883 5884 5885 5887 5889 5891 5892 5894 5895 5897 5899 5901 5903 5904 5905 5907 5908 5910 5911 5913 5914 5916 5917 5917 5918 5918 5918 5919 5919 5920 5920 5921 5922 5922
5892 5890 5888 5887 5885 5883 5882 5880 5879 5877 5876 5874 5872 5870 5868 5866 5864 5863 5861 5859 5858 5858 5856 5855 5855 5855 5854 5854 5853 5854 5855 5855 5855 5856 5857 5857 5857 5859 5860 5861 5862 5863 5864 5866 5868 5868 5870 5871 5872 5874 5876 5878 5880 5881 5883 5885 5887 5889 5890 5892 5893 5895 5897 5899 5901 5902 5903 5905 5906 5908 5910 5912 5913 5914 5915 5916 5916 5917 5917 5918 5918 5919 5919 5920 5920
5891 5889 5887 5885 5883 5881 5879 5877 5875 5873 5871 5869 5867 5866 5864 5863 5861 5859 5857 5855 5853 5853 5851 5850 5850 5851 5850 5849 5849 5849 5848 5849 5849 5850 5851 5852 5852 5853 5856 5857 5857 5858 5860 5862 5864 5865 5866 5867 5869 5870 5872 5873 5875 5877 5879 5881 5883 5885 5887 5889 5890 5891 5893 5895 5897 5899 5900 5901 5903 5905 5907 5909 5910 5911 5913 5914 5914 5915 5915 5916 5916 5917 5917 5918 5919
5889 5887 5885 5883 5881 5879 5876 5874 5872 5870 5868 5866 5863 5861 5860 5858 5857 5855 5853 5851 5849 5848 5847 5845 5844 5844 5844 5845 5844 5843 5843 5843 5844 5844 5845 5847 5847 5847 5849 5851 5851 5853 5855 5857 5859 5861 5862 5863 5865 5866 5868 5869 5871 5873 5875 5877 5878 5881 5883 5885 5887 5888 5889 5891 5893 5895 5896 5898 5899 5901 5903 5905 5907 5908 5909 5911 5912 5913 5913 5914 5914 5915 5915 5916 5917
5887 5884 5882 5880 5878 5876 5874 5872 5869 5867 5864 5862 5860 5858 5855 5854 5852 5850 5849 5847 5845 5844 5843 5841 5839 5838 5838 5839 5839 5838 5838 5838 5839 5839 5839 5841 5842 5841 5842 5843 5844 5847 5850 5852 5854 5855 5857 5859 5861 5862 5863 5865 5867 5869 5870 5872 5874 5876 5879 5882 5883 5884 5885 5887 5889 5891 5892 5894 5896 5898 5899 5901 5903 5904 5906 5907 5909 5910 5911 5911 5912 5913 5913 5914 5915
5885 5882 5880 5878 5876 5874 5872 5870 5867 5864 5861 5858 5856 5853 5851 5849 5848 5846 5844 5843 5841 5840 5839 5837 5834 5833 5833 5834 5834 5833 5833 5833 5834 5834 5833 5834 5836 5836 5835 5836 5838 5842 5844 5846 5848 5850 5852 5855 5856 5858 5859 5860 5863 5864 5866 5868 5869 5872 5874 5876 5878 5880 5881 5882 5884 5886 5888 5890 5892 5894 5896 5898 5899 5901 5902 5904 5905 5907 5908 5909 5910 5910 5911 5912 5913
5881 5879 5877 5876 5874 5871 5869 5867 5864 5861 5858 5855 5853 5850 5848 5846 5844 5842 5840 5839 5838 5837 5836 5834 5831 5830 5829 5828 5829 5828 5827 5828 5828 5828 5829 5829 5830 5831 5831 5830 5831 5836 5839 5840 5842 5844 5846 5848 5851 5853 5853 5855 5858 5860 5862 5864 5865 5867 5869 5870 5872 5875 5876 5877 5879 5881 5883 5886 5888 5890 5892 5894 5896 5897 5899 5900 5902 5903 5905 5906 5907 5907 5908 5909 5910
5878 5876 5874 5873 5871 5868 5866 5863 5861 5858 5855 5852 5849 5847 5844 5842 5840 5838 5836 5834 5833 5832 5831 5830 5827 5826 5825 5823 5824 5824 5823 5823 5823 5822 5823 5824 5825 5826 5827 5825 5825 5830 5833 5833 5835 5838 5840 5842 5845 5847 5849 5851 5854 5855 5857 5859 5860 5862 5863 5864 5867 5869 5871 5872 5874 5876 5879 5881 5884 5886 5888 5890 5892 5894 5895 5897 5898 5900 5901 5902 5904 5905 5905 5906 5907
5875 5873 5871 5869 5867 5865 5862 5860 5857 5854 5852 5849 5846 5843 5841 5838 5836 5834 5832 5830 5828 5827 5826 5825 5823 5822 5821 5819 5819 5819 5819 5819 5818 5817 5817 5818 5819 5820 5821 5820 5820 5824 5825 5825 5828 5832 5834 5836 5839 5842 5844 5847 5849 5850 5852 5854 5856 5858 5858 5860 5861 5863 5865 5867 5869 5872 5874 5876 5879 5882 5884 5886 5888 5890 5891 5893 5894 5896 5897 5899 5900 5901 5902 5903 5904
5871 5869 5868 5866 5864 5861 5859 5856 5854 5851 5848 5845 5843 5840 5837 5834 5832 5829 5827 5826 5824 5823 5821 5820 5819 5817 5816 5815 5814 5813 5813 5814 5813 5811 5811 5812 5813 5814 5816 5815 5815 5818 5819 5819 5821 5824 5827 5830 5833 5836 5838 5841 5843 5845 5847 5850 5851 5853 5854 5855 5857 5858 5860 5863 5865 5867 5869 5872 5874 5877 5879 5882 5884 5886 5887 5889 5891 5892 5893 5895 5896 5898 5899 5900 5901
5867 5865 5864 5862 5860 5857 5855 5852 5850 5847 5845 5842 5839 5837 5834 5831 5828 5826 5824 5822 5821 5819 5817 5815 5814 5813 5811 5811 5810 5808 5807 5808 5807 5807 5806 5806 5807 5808 5810 5810 5810 5812 5813 5814 5815 5817 5822 5826 5827 5829 5832 5834 5837 5840 5843 5845 5846 5848 5850 5851 5852 5855 5856 5858 5861 5863 5865 5867 5869 5871 5874 5877 5879 5881 5883 5885 5887 5888 5890 5891 5893 5894 5895 5896 5897
5864 5861 5859 5858 5855 5853 5850 5848 5845 5843 5841 5838 5836 5833 5831 5828 5825 5822 5820 5818 5817 5816 5813 5811 5809 5808 5806 5805 5805 5803 5802 5801 5801 5802 5802 5801 5802 5803 5804 5805 5805 5806 5807 5808 5808 5812 5817 5820 5821 5823 5825 5828 5831 5834 5837 5840 5841 5842 5845 5846 5848 5851 5853 5854 5856 5858 5860 5862 5864 5866 5869 5871 5874 5876 5879 5881 5883 5884 5886 5887 5889 5890 5892 5893 5894
5860 5857 5855 5853 5851 5849 5846 5843 5841 5838 5836 5833 5831 5829 5826 5824 5821 5819 5816 5814 5813 5811 5809 5807 5805 5803 5802 5800 5799 5798 5797 5796 5795 5796 5797 5796 5796 5797 5798 5799 5798 5799 5802 5802 5803 5807 5811 5813 5815 5818 5821 5823 5825 5827 5830 5833 5836 5837 5839 5841 5844 5846 5849 5850 5851 5853 5855 5857 5859 5861 5864 5867 5869 5872 5874 5877 5879 5881 5882 5884 5885 5886 5888 5889 5890
5855 5853 5851 5849 5846 5844 5841 5839 5836 5834 5831 5828 5826 5824 5821 5819 5817 5814 5812 5810 5808 5806 5804 5803 5801 5799 5797 5795 5794 5792 5791 5790 5789 5790 5790 5790 5790 5791 5793 5793 5792 5793 5797 5797 5799 5803 5805 5807 5810 5813 5817 5819 5818 5821 5823 5826 5829 5831 5833 5836 5838 5841 5844 5845 5847 5848 5849 5852 5854 5856 5859 5862 5865 5867 5870 5873 5875 5877 5878 5880 5881 5883 5884 5885 5886
5850 5848 5846 5844 5842 5839 5836 5834 5831 5829 5826 5823 5821 5819 5817 5814 5811 5809 5807 5805 5803 5801 5798 5796 5795 5793 5791 5789 5788 5786 5784 5783 5783 5783 5784 5784 5784 5785 5786 5787 5786 5787 5790 5791 5794 5799 5800 5801 5804 5807 5811 5812 5811 5813 5817 5819 5822 5825 5828 5830 5833 5836 5838 5840 5842 5843 5844 5846 5849 5851 5854 5857 5860 5863 5865 5868 5870 5872 5874 5876 5877 5879 5881 5882 5883
5846 5844 5841 5839 5837 5834 5832 5829 5826 5823 5820 5818 5815 5814 5812 5809 5806 5803 5802 5799 5797 5795 5792 5790 5788 5786 5785 5783 5781 5780 5778 5777 5777 5776 5777 5777 5778 5778 5779 5780 5781 5782 5784 5784 5788 5795 5796 5794 5797 5800 5803 5805 5805 5807 5810 5813 5816 5819 5822 5825 5828 5830 5832 5836 5838 5839 5839 5841 5844 5846 5849 5851 5854 5858 5860 5863 5866 5868 5870 5872 5873 5875 5877 5878 5879
5842 5840 5837 5835 5833 5830 5827 5824 5821 5818 5814 5812 5809 5808 5806 5803 5800 5798 5796 5794 5791 5789 5786 5784 5781 5779 5778 5776 5774 5772 5771 5770 5770 5769 5769 5769 5770 5772 5772 5773 5774 5776 5778 5778 5781 5789 5791 5789 5790 5794 5795 5797 5799 5801 5804 5808 5812 5815 5817 5819 5821 5824 5827 5830 5833 5834 5835 5837 5839 5841 5843 5846 5849 5852 5856 5858 5861 5863 5865 5867 5869 5871 5873 5874 5875
5838 5835 5833 5831 5828 5826 5823 5819 5816 5813 5810 5806 5804 5802 5799 5796 5794 5791 5789 5787 5785 5782 5780 5777 5775 5772 5770 5768 5767 5765 5763 5763 5762 5761 5761 5761 5762 5763 5764 5765 5767 5769 5772 5772 5774 5780 5786 5784 5784 5787 5789 5790 5793 5795 5798 5803 5808 5810 5811 5813 5815 5819 5822 5825 5827 5829 5831 5832 5834 5837 5839 5841 5844 5847 5850 5853 5856 5858 5860 5863 5865 5867 5868 5870 5871
5833 5831 5828 5826 5823 5821 5818 5814 5811 5808 5805 5801 5798 5796 5793 5790 5787 5785 5782 5780 5778 5776 5773 5770 5768 5765 5763 5761 5760 5758 5756 5755 5755 5754 5753 5753 5753 5754 5756 5757 5759 5762 5765 5766 5767 5772 5779 5780 5778 5781 5783 5785 5787 5790 5793 5798 5802 5803 5805 5807 5810 5813 5817 5819 5822 5824 5826 5828 5829 5832 5834 5836 5838 5842 5845 5848 5850 5853 5855 5858 5860 5862 5863 5865 5866
5828 5826 5823 5821 5818 5815 5812 5809 5806 5802 5799 5796 5793 5790 5787 5784 5781 5778 5775 5773 5771 5769 5767 5764 5762 5759 5757 5755 5753 5751 5750 5749 5748 5747 5746 5745 5745 5746 5747 5749 5752 5756 5758 5760 5761 5764 5769 5774 5774 5775 5778 5780 5782 5785 5787 5792 5795 5797 5800 5803 5804 5808 5811 5814 5817 5819 5822 5824 5824 5827 5829 5831 5834 5837 5840 5843 5845 5848 5850 5853 5855 5857 5858 5860 5862
5823 5820 5818 5815 5812 5810 5807 5804 5801 5797 5793 5790 5788 5785 5781 5779 5776 5772 5769 5767 5765 5762 5761 5758 5756 5753 5751 5749 5746 5744 5743 5742 5741 5740 5739 5738 5738 5738 5740 5742 5744 5749 5751 5752 5755 5758 5761 5766 5769 5770 5772 5774 5776 5779 5781 5785 5789 5792 5796 5798 5800 5803 5806 5809 5813 5814 5816 5819 5820 5822 5824 5827 5829 5832 5835 5838 5840 5842 5845 5847 5849 5851 5853 5855 5857
5818 5815 5813 5810 5807 5804 5801 5799 5796 5793 5789 5785 5783 5780 5776 5773 5770 5768 5764 5761 5759 5757 5755 5752 5750 5748 5745 5742 5740 5738 5736 5735 5733 5733 5732 5731 5730 5730 5732 5734 5737 5740 5744 5744 5746 5750 5754 5759 5763 5765 5767 5769 5770 5773 5776 5779 5783 5786 5790 5793 5797 5800 5801 5805 5809 5810 5811 5814 5815 5817 5820 5822 5825 5827 5830 5832 5834 5837 5839 5842 5844 5846 5848 5850 5851
5813 5810 5807 5805 5802 5798 5796 5794 5791 5788 5784 5780 5777 5774 5770 5767 5764 5761 5758 5756 5754 5752 5749 5747 5745 5743 5739 5736 5734 5732 5729 5728 5726 5725 5725 5724 5723 5723 5724 5727 5729 5732 5736 5737 5738 5743 5747 5751 5756 5759 5762 5764 5765 5767 5770 5773 5776 5780 5784 5788 5792 5796 5798 5801 5804 5805 5806 5808 5811 5813 5815 5817 5819 5822 5824 5827 5829 5832 5834 5837 5839 5841 5843 5844 5846
5808 5805 5802 5799 5796 5793 5790 5788 5786 5782 5778 5774 5771 5767 5764 5761 5758 5755 5753 5751 5749 5747 5745 5742 5740 5738 5735 5731 5728 5725 5723 5721 5719 5718 5718 5717 5716 5717 5718 5720 5722 5725 5727 5730 5732 5736 5739 5743 5748 5752 5755 5757 5759 5761 5764 5767 5771 5775 5779 5783 5787 5790 5793 5795 5798 5799 5801 5804 5807 5808 5810 5812 5814 5817 5819 5822 5825 5827 5830 5832 5834 5836 5838 5840 5841
5803 5800 5797 5794 5791 5788 5785 5782 5780 5777 5774 5770 5765 5762 5759 5756 5753 5750 5748 5746 5744 5743 5741 5738 5736 5733 5730 5726 5723 5720 5718 5716 5714 5712 5711 5710 5710 5711 5712 5714 5716 5718 5720 5723 5725 5728 5731 5736 5741 5745 5747 5751 5754 5757 5758 5762 5766 5771 5775 5778 5780 5784 5787 5790 5792 5794 5797 5801 5803 5804 5806 5808 5810 5812 5814 5817 5820 5822 5824 5826 5829 5831 5833 5834 5836
5798 5795 5792 5789 5786 5782 5779 5777 5774 5772 5769 5766 5761 5757 5754 5752 5749 5746 5744 5742 5740 5739 5737 5735 5732 5729 5726 5722 5719 5716 5713 5711 5708 5707 5705 5705 5705 5706 5707 5708 5710 5711 5714 5717 5719 5722 5724 5728 5733 5737 5740 5745 5749 5751 5753 5756 5761 5766 5769 5772 5775 5780 5783 5785 5788 5791 5794 5797 5799 5800 5803 5804 5805 5806 5809 5812 5814 5816 5818 5821 5824 5826 5828 5829 5830
5793 5790 5787 5784 5781 5777 5774 5771 5768 5765 5763 5760 5756 5753 5750 5747 5745 5742 5740 5737 5736 5735 5733 5731 5728 5725 5722 5719 5714 5711 5709 5706 5704 5702 5700 5700 5700 5700 5701 5703 5704 5706 5708 5710 5714 5717 5719 5721 5726 5730 5734 5738 5742 5745 5747 5751 5755 5760 5764 5767 5770 5774 5777 5781 5785 5788 5790 5792 5793 5796 5798 5798 5799 5801 5803 5806 5809 5811 5813 5817 5819 5820 5822 5823 5825
5788 5785 5782 5779 5776 5773 5770 5767 5763 5760 5757 5754 5751 5749 5746 5743 5741 5739 5736 5734 5732 5731 5729 5727 5725 5722 5719 5716 5711 5707 5704 5702 5699 5697 5696 5696 5695 5696 5696 5698 5698 5700 5702 5704 5708 5711 5714 5716 5720 5723 5728 5732 5736 5739 5742 5746 5751 5755 5758 5761 5764 5768 5772 5777 5781 5784 5786 5786 5786 5790 5793 5793 5794 5796 5799 5802 5804 5806 5809 5812 5814 5815 5816 5818 5820
5783 5780 5777 5774 5771 5769 5766 5762 5758 5755 5753 5749 5745 5744 5742 5739 5737 5735 5732 5730 5728 5727 5725 5723 5720 5717 5714 5711 5708 5704 5701 5697 5695 5693 5692 5691 5691 5691 5692 5693 5693 5695 5697 5699 5702 5706 5709 5711 5714 5718 5722 5726 5730 5734 5738 5741 5745 5749 5752 5755 5759 5763 5767 5771 5775 5778 5779 5780 5781 5785 5788 5788 5789 5793 5796 5798 5800 5802 5805 5808 5810 5810 5811 5813 5815
5778 5775 5772 5769 5767 5764 5761 5757 5753 5750 5748 5745 5741 5739 5738 5735 5733 5731 5729 5727 5725 5723 5721 5719 5716 5713 5710 5707 5704 5701 5697 5693 5691 5689 5688 5687 5687 5687 5687 5688 5689 5691 5693 5694 5697 5700 5703 5707 5710 5714 5718 5720 5724 5730 5733 5736 5739 5743 5746 5750 5754 5757 5761 5765 5768 5770 5772 5774 5777 5780 5783 5783 5785 5790 5794 5795 5796 5798 5801 5803 5805 5806 5807 5809 5811
5773 5770 5767 5764 5761 5759 5756 5752 5748 5745 5742 5740 5737 5735 5733 5731 5729 5728 5726 5724 5722 5720 5717 5715 5712 5710 5707 5704 5700 5697 5693 5690 5686 5684 5683 5682 5682 5682 5682 5683 5685 5687 5688 5689 5691 5694 5698 5701 5705 5710 5714 5716 5720 5725 5728 5730 5733 5737 5742 5745 5749 5751 5755 5758 5761 5764 5767 5771 5773 5776 5779 5781 5782 5786 5790 5791 5792 5794 5797 5799 5800 5801 5802 5804 5806
5767 5765 5761 5758 5755 5752 5749 5746 5743 5740 5737 5735 5733 5731 5729 5727 5726 5724 5722 5720 5718 5716 5714 5711 5709 5706 5704 5700 5697 5693 5690 5686 5683 5680 5678 5677 5677 5677 5678 5679 5680 5682 5684 5685 5687 5690 5693 5696 5700 5705 5709 5712 5716 5721 5723 5724 5727 5732 5736 5740 5743 5745 5748 5752 5756 5759 5763 5766 5769 5772 5775 5777 5778 5782 5786 5787 5787 5790 5792 5794 5795 5796 5797 5800 5802
5762 5759 5756 5753 5750 5747 5744 5740 5737 5735 5733 5730 5728 5727 5725 5724 5722 5721 5719 5716 5714 5712 5710 5708 5706 5703 5700 5696 5692 5689 5686 5682 5679 5676 5674 5673 5672 5673 5674 5674 5676 5677 5679 5681 5683 5685 5688 5692 5696 5700 5705 5708 5712 5716 5718 5719 5723 5726 5729 5733 5737 5739 5743 5747 5751 5754 5757 5760 5763 5767 5770 5772 5773 5777 5781 5782 5783 5785 5787 5789 5791 5792 5793 5795 5798
5757 5754 5751 5748 5745 5742 5739 5735 5732 5730 5728 5726 5725 5724 5723 5722 5720 5718 5716 5714 5712 5709 5707 5705 5703 5700 5697 5693 5689 5685 5682 5678 5676 5673 5670 5668 5667 5668 5669 5670 5671 5673 5674 5677 5679 5682 5684 5688 5692 5696 5700 5703 5707 5710 5713 5715 5719 5722 5725 5729 5732 5733 5737 5742 5745 5747 5750 5754 5758 5762 5765 5767 5769 5772 5775 5778 5779 5781 5783 5785 5787 5788 5789 5791 5794
5753 5750 5747 5743 5740 5737 5734 5730 5727 5725 5725 5723 5722 5721 5720 5719 5717 5715 5712 5711 5710 5707 5704 5702 5700 5697 5695 5691 5686 5682 5678 5675 5672 5669 5667 5664 5663 5663 5665 5666 5667 5668 5670 5672 5675 5678 5681 5684 5688 5692 5696 5699 5702 5705 5709 5712 5715 5719 5722 5725 5727 5728 5732 5737 5740 5742 5745 5749 5753 5757 5760 5763 5766 5767 5770 5772 5774 5776 5778 5781 5783 5785 5785 5787 5790